Regional Weather Roundup
Issued by NWS Newport/Morehead, NC

Current Version | Previous Version | Text Only | Print | Product List | Glossary On
Versions: 1 2 3 4 5 6 7 8 9 10 11 12 13 14 15 16 17 18 19 20 21 22 23 24 25 26 27 28 29 30 31 32 33 34 35 36 37 38 39 40 41 42 43 44 45 46 47 48 49 50
000
ASUS42 KMHX 091822
RWRMHX
WEATHER ROUNDUP FOR EASTERN NORTH CAROLINA
NATIONAL WEATHER SERVICE NEWPORT/MOREHEAD CITY NC
200 PM EDT WED JUL 09 2014

NOTE: "FAIR" INDICATES FEW OR NO CLOUDS BELOW 12,000 FEET
WITH NO SIGNIFICANT WEATHER AND/OR OBSTRUCTIONS TO VISIBILITY

NCZ015>017-031-032-045>047-102-103-091900-
NORTH COAST

CITY           SKY/WX    TMP DP  RH WIND       PRES   REMARKS
EDENTON        PTSUNNY   90  73  57 SW8       29.97F
ELIZABETH CITY MOSUNNY   90  73  57 SW15G21   29.97F
KITTY HAWK     PTCLDY    92  74  56 SW9       29.97F HX 101
MANTEO         PTSUNNY   87  78  73 S18       29.98F

$$

NCZ045>047-081-094-103-104-091900-
CENTRAL COAST

CITY           SKY/WX    TMP DP  RH WIND       PRES   REMARKS
FRISCO         CLOUDY    86  78  77 SW14G22   30.03F
SWANQUARTER      N/A     91 N/A N/A CALM      29.97S

$$

NCZ095-097-098-100-101-091900-
SOUTHERN COAST

CITY           SKY/WX    TMP DP  RH WIND       PRES   REMARKS
BEAUFORT       PTSUNNY   86  79  79 SW20      30.03F
CEDAR ISLAND     N/A     90 N/A N/A S8G20     30.06S
JACKSONVILLE   PTSUNNY   91  76  61 S13       29.99F HX 103
NEWPORT        NOT AVBL
PINEY ISLAND   CLEAR     90  79  70 S15G24    30.02F HX 106
WILMINGTON     CLOUDY    92  69  47 W10       30.00F


$$

NCZ011>013-027>030-043-044-078>080-089-090>093-098-091900-
COASTAL PLAIN

CITY           SKY/WX    TMP DP  RH WIND       PRES   REMARKS
AHOSKIE        PTSUNNY   88  71  58 S6        29.97F
CLINTON        MOSUNNY   93  69  45 SW8       29.98F
ELIZABETHTOWN  MOSUNNY   94  63  35 SW8       30.00F
GOLDSBORO      MOSUNNY   93  73  52 SW10      29.96F HX 101
GREENVILLE     MOSUNNY   91  73  55 SW10      29.99F HX 100
HAVELOCK       MOSUNNY   89  77  67 S13G21    30.01F HX 101
KENANSVILLE    MOSUNNY   91  65  41 SW6       30.00F
KINSTON        MOSUNNY   93  70  46 SW13      29.99F
NEW BERN       MOSUNNY   94  70  45 SW7       30.00F HX 100
RICHLANDS      MOSUNNY   95  68  41 W9        29.99F
ROANOKE RAPIDS NOT AVBL
ROCKY MOUNT    PTSUNNY   91  71  51 SW9       29.97F
WASHINGTON     MOSUNNY   93  76  56 SW10G17   29.98F HX 105
WHITEVILLE     MOSUNNY   93  66  40 SW6       30.00F

$$

AMZ130-135-150-152-154-156-158-170-250-252-270-ANZ085-086-088-633-658-670-091900-
MARINE OBSERVATIONS

STATION/POSITION TIME  TEMP    WIND        PRES    WAVE   SWELL
                       AIR SEA DIR/SP/G            HT/PER HT/PER
                 (UTC) (F)     (DEG/KT/KT) (MB)    (FT/S) (FT/S)
CHESAPEAKE LIGHT 1800   78     180/ 16/ 17 1014.7
BUOY 44014       1800   78 75  200/ 12/ 12 1015.0    4/ 7   3/ 7
DUCK             1800   87 60  210/  9/ 11 1014.4
2E DUCK          1800                        N/A     2/ 9
OREGON INLET     1800   82 83  190/ 22/ 26 1015.8
BUOY 44095       1800      81                N/A     4/ 7
HATTERAS CG      1800   84 81  210/ 12/ 17 1017.2
DIAMOND BUOY     1800          300/ 19/ 23 1016.7    6/ 7   2/ 8
17S OCRACOKE INL NOT AVBL
CAPE LOOKOUT     1800   83     190/ 18/ 21 1016.8
BEAUFORT LAB     1800   84 82  210/  9/ 17 1016.5
30 SE NEW RIVER  1800   81 82  210/ 16/ 19 1017.3    5/ 6   2/ 8
5 SE WRIGHTSVILL 1800   78 81  200/ 19/ 21 1017.1
FRYING PAN BUOY  NOT AVBL
BUOY 41001       NOT AVBL
BUOY 41002       1734   81 82  240/  8/ 10 1021.3    4/ 9   3/ 9
BUOY 41004       1800   81 82  200/ 16/ 16 1017.3    4/ 6   2/ 9

$$


USA.gov is the U.S. government's official web portal to all federal, state and local government web resources and services.